Location: ????????
(56.0167°N, 38.0333°E)
Time: 13:07:50
(UTC+00:00)

ISS - Pass Details

Date: 19 May 2025
Orbit: 415 x 418 km, 51.6° (Epoch: 20 June)

Event Time Altitude Azimuth Distance (km) Brightness Sun altitude
Rises 18:35:40 0° 269° (W) 2,363 0.7 -6.1°
Reaches altitude 10° 18:37:54 10° 259° (WSW) 1,497 -0.6 -6.3°
Maximum altitude 18:40:55 31° 195° (SSW) 758 -2.8 -6.6°
Drops below altitude 10° 18:43:55 10° 131° (SE) 1,491 -1.6 -6.8°
Enters shadow 18:44:11 - 129° (SE) 1,589 -1.5 -6.9°
